| time (UTC) | temp F | wind direction | speed knots | gust knots | rain 1hr in | rain 24hr in | rain mn in | humidity % | barometer mb |
| 20260503175014 | 76 | 321 | 0.9 | 5.2 | 0.00 | 0.05 | 0.00 | 57 | 1018.6 |
| 20260503174517 | 76 | 326 | 0.0 | 5.2 | 0.00 | 0.05 | 0.00 | 62 | 1018.8 |
| 20260503174020 | 75 | 284 | 0.0 | 4.3 | 0.00 | 0.05 | 0.00 | 58 | 1018.6 |
| 20260503173513 | 75 | 313 | 0.9 | 4.3 | 0.00 | 0.05 | 0.00 | 58 | 1018.8 |
| 20260503173012 | 76 | 269 | 0.0 | 3.5 | 0.00 | 0.05 | 0.00 | 59 | 1018.7 |
| 20260503172512 | 77 | 298 | 0.0 | 4.3 | 0.00 | 0.05 | 0.00 | 59 | 1018.8 |
| 20260503172013 | 77 | 287 | 0.9 | 4.3 | 0.00 | 0.05 | 0.00 | 59 | 1018.7 |
| 20260503171513 | 76 | 340 | 0.9 | 3.5 | 0.00 | 0.05 | 0.00 | 58 | 1019.0 |
| 20260503171010 | 77 | 80 | 0.0 | 3.5 | 0.00 | 0.05 | 0.00 | 58 | 1019.1 |
| 20260503170513 | 76 | 113 | 0.0 | 3.5 | 0.00 | 0.05 | 0.00 | 57 | 1019.1 |
| 20260503150534 | 73 | 306 | 0.0 | 3.5 | 0.00 | 0.20 | 0.00 | 72 | 1019.3 |
| 20260503131040 | 62 | 328 | 0.0 | 2.6 | 0.00 | 0.23 | 0.00 | 89 | 1018.6 |
| 20260503130538 | 62 | 127 | 0.0 | 1.7 | 0.00 | 0.23 | 0.00 | 89 | 1018.6 |
| 20260503110505 | 56 | 65 | 0.0 | 0.0 | 0.00 | 0.23 | 0.00 | 93 | 1017.7 |
| 20260503081523 | 60 | 17 | 0.0 | 0.9 | 0.00 | 0.23 | 0.00 | 93 | 1016.1 |
| 20260503081016 | 60 | 314 | 0.0 | 0.9 | 0.00 | 0.23 | 0.00 | 93 | 1016.1 |
| 20260503080613 | 60 | 312 | 0.0 | 1.7 | 0.00 | 0.23 | 0.00 | 93 | 1016.0 |
| 20260503072508 | 59 | 354 | 0.0 | 0.9 | 0.00 | 0.23 | 0.00 | 93 | 1015.8 |
| 20260503072006 | 59 | 327 | 0.0 | 0.0 | 0.00 | 0.23 | 0.00 | 93 | 1015.7 |
| 20260503071510 | 59 | 327 | 0.0 | 0.0 | 0.00 | 0.23 | 0.00 | 93 | 1015.7 |
| 20260503071004 | 59 | 327 | 0.0 | 0.0 | 0.00 | 0.23 | 0.00 | 93 | 1015.7 |
| 20260503070502 | 58 | 326 | 0.0 | 0.0 | 0.00 | 0.23 | 0.00 | 93 | 1015.6 |
| 20260503055051 | 59 | 328 | 0.0 | 0.0 | 0.00 | 0.23 | 0.00 | 92 | 1015.5 |
| 20260503054549 | 59 | 328 | 0.0 | 0.0 | 0.00 | 0.23 | 0.00 | 92 | 1015.6 |
| 20260503054050 | 59 | 328 | 0.0 | 0.0 | 0.00 | 0.23 | 0.00 | 92 | 1015.6 |
| 20260503053551 | 59 | 328 | 0.0 | 0.0 | 0.00 | 0.23 | 0.00 | 92 | 1015.5 |
| 20260503053048 | 60 | 328 | 0.0 | 0.9 | 0.00 | 0.23 | 0.00 | 92 | 1015.6 |
| 20260503052645 | 60 | 328 | 0.0 | 0.9 | 0.00 | 0.23 | 0.00 | 92 | 1015.4 |
| 20260503052040 | 60 | 234 | 0.0 | 0.0 | 0.00 | 0.23 | 0.00 | 92 | 1015.4 |
| 20260503051542 | 60 | 234 | 0.0 | 0.9 | 0.00 | 0.23 | 0.00 | 92 | 1015.3 |
| 20260503051041 | 60 | 235 | 0.0 | 0.9 | 0.00 | 0.23 | 0.00 | 92 | 1015.3 |
| 20260503050539 | 60 | 244 | 0.0 | 0.9 | 0.00 | 0.23 | 0.00 | 92 | 1015.3 |
| 20260503050051 | 60 | 336 | 0.0 | 0.0 | 0.00 | 0.23 | 0.00 | 92 | 1015.3 |
| 20260503045531 | 60 | 336 | 0.0 | 0.9 | 0.00 | 0.23 | 0.00 | 92 | 1015.3 |
| 20260503045032 | 60 | 335 | 0.0 | 0.9 | 0.00 | 0.23 | 0.00 | 92 | 1015.2 |
| 20260503044538 | 60 | 106 | 0.0 | 0.9 | 0.00 | 0.23 | 0.00 | 91 | 1015.1 |
| 20260503044034 | 60 | 131 | 0.0 | 0.9 | 0.00 | 0.23 | 0.00 | 92 | 1015.1 |
| 20260503043524 | 60 | 221 | 0.0 | 0.9 | 0.00 | 0.23 | 0.00 | 91 | 1015.0 |
| 20260503043023 | 60 | 32 | 0.0 | 0.9 | 0.00 | 0.23 | 0.00 | 91 | 1015.1 |
| 20260503042522 | 60 | 1 | 0.0 | 0.0 | 0.00 | 0.23 | 0.00 | 91 | 1014.9 |
| 20260503042022 | 60 | 1 | 0.0 | 0.0 | 0.00 | 0.23 | 0.00 | 91 | 1014.7 |
| 20260503041520 | 60 | 1 | 0.0 | 0.9 | 0.00 | 0.23 | 0.00 | 91 | 1014.8 |
| 20260503041019 | 60 | 321 | 0.0 | 0.9 | 0.00 | 0.23 | 0.00 | 91 | 1014.7 |
| 20260503040517 | 61 | 167 | 0.0 | 1.7 | 0.00 | 0.23 | 0.00 | 91 | 1014.7 |
| 20260503040016 | 61 | 53 | 0.0 | 1.7 | 0.00 | 0.23 | 0.00 | 91 | 1014.7 |
| 20260503035014 | 61 | 201 | 0.0 | 0.9 | 0.00 | 0.23 | 0.23 | 91 | 1014.6 |
| 20260503034512 | 61 | 311 | 0.0 | 0.9 | 0.00 | 0.23 | 0.23 | 91 | 1014.6 |
| 20260503034017 | 61 | 354 | 0.0 | 0.9 | 0.00 | 0.23 | 0.23 | 91 | 1014.4 |
| 20260503033508 | 61 | 340 | 0.0 | 0.0 | 0.00 | 0.23 | 0.23 | 90 | 1014.6 |
| 20260503033007 | 61 | 340 | 0.0 | 0.9 | 0.00 | 0.23 | 0.23 | 90 | 1014.5 |
| 20260503032506 | 61 | 340 | 0.0 | 0.9 | 0.00 | 0.23 | 0.23 | 90 | 1014.4 |
| 20260503032013 | 61 | 306 | 0.0 | 1.7 | 0.00 | 0.23 | 0.23 | 90 | 1014.4 |
| 20260503031504 | 62 | 98 | 0.0 | 1.7 | 0.00 | 0.23 | 0.23 | 90 | 1014.3 |
| 20260503031002 | 62 | 11 | 0.0 | 0.9 | 0.00 | 0.23 | 0.23 | 90 | 1014.3 |
| 20260503030602 | 62 | 11 | 0.0 | 3.5 | 0.00 | 0.23 | 0.23 | 90 | 1014.3 |
| 20260503025600 | 62 | 331 | 0.0 | 0.9 | 0.00 | 0.23 | 0.23 | 89 | 1014.0 |
| 20260503025100 | 63 | 331 | 0.0 | 1.7 | 0.00 | 0.23 | 0.23 | 89 | 1013.9 |
| 20260503025002 | 63 | 136 | 0.0 | 1.7 | 0.00 | 0.23 | 0.23 | 89 | 1013.9 |
| 20260503024554 | 63 | 356 | 0.0 | 2.6 | 0.00 | 0.23 | 0.23 | 89 | 1014.0 |
| 20260503024059 | 63 | 327 | 0.0 | 1.7 | 0.00 | 0.23 | 0.23 | 90 | 1014.0 |
| 20260503023554 | 63 | 150 | 0.0 | 0.9 | 0.00 | 0.23 | 0.23 | 90 | 1013.9 |
| 20260503023056 | 63 | 240 | 0.0 | 1.7 | 0.00 | 0.23 | 0.23 | 90 | 1014.0 |
| 20260503022552 | 63 | 98 | 0.0 | 1.7 | 0.00 | 0.23 | 0.23 | 90 | 1013.9 |
| 20260503022050 | 63 | 249 | 0.0 | 1.7 | 0.00 | 0.23 | 0.23 | 90 | 1013.9 |
| 20260503021551 | 63 | 2 | 0.0 | 3.5 | 0.00 | 0.23 | 0.23 | 90 | 1013.9 |
| 20260503021049 | 63 | 345 | 0.0 | 4.3 | 0.00 | 0.23 | 0.23 | 90 | 1013.9 |
| 20260503020549 | 63 | 295 | 0.0 | 4.3 | 0.00 | 0.23 | 0.23 | 90 | 1013.8 |
| 20260503020057 | 63 | 94 | 0.0 | 1.7 | 0.00 | 0.23 | 0.23 | 90 | 1013.8 |
| 20260503020004 | 63 | 319 | 0.0 | 1.7 | 0.00 | 0.23 | 0.23 | 90 | 1013.8 |
| 20260503015546 | 63 | 96 | 0.0 | 0.9 | 0.00 | 0.23 | 0.23 | 90 | 1013.8 |
| 20260503015043 | 63 | 355 | 0.0 | 1.7 | 0.00 | 0.23 | 0.23 | 90 | 1013.7 |
| 20260503014553 | 63 | 94 | 0.0 | 5.2 | 0.00 | 0.23 | 0.23 | 90 | 1013.6 |
| 20260503014043 | 63 | 69 | 0.0 | 5.2 | 0.00 | 0.23 | 0.23 | 90 | 1013.4 |
| 20260503013544 | 63 | 7 | 0.0 | 0.9 | 0.00 | 0.23 | 0.23 | 90 | 1013.5 |
| 20260503013043 | 63 | 31 | 0.0 | 1.7 | 0.00 | 0.23 | 0.23 | 90 | 1013.4 |
| 20260503012027 | 63 | 236 | 0.0 | 1.7 | 0.00 | 0.23 | 0.23 | 90 | 1013.3 |
| 20260503011524 | 63 | 281 | 0.0 | 1.7 | 0.00 | 0.23 | 0.23 | 90 | 1013.2 |
| 20260503011030 | 63 | 350 | 0.0 | 1.7 | 0.00 | 0.23 | 0.23 | 90 | 1013.1 |
| 20260503010515 | 63 | 312 | 0.0 | 1.7 | 0.00 | 0.23 | 0.23 | 90 | 1013.0 |
| 20260503010017 | 63 | 114 | 0.0 | 2.6 | 0.00 | 0.23 | 0.23 | 90 | 1013.0 |
| 20260503005519 | 63 | 282 | 0.0 | 2.6 | 0.00 | 0.23 | 0.23 | 90 | 1013.0 |
| 20260503004112 | 64 | 176 | 0.0 | 3.5 | 0.00 | 0.23 | 0.23 | 91 | 1012.8 |
| 20260503003508 | 64 | 334 | 0.0 | 2.6 | 0.00 | 0.23 | 0.23 | 91 | 1012.7 |
| 20260503003011 | 64 | 307 | 0.0 | 1.7 | 0.00 | 0.23 | 0.23 | 91 | 1012.6 |
| 20260503002510 | 64 | 352 | 0.0 | 0.9 | 0.00 | 0.23 | 0.23 | 91 | 1012.5 |
| 20260503002008 | 64 | 260 | 0.0 | 4.3 | 0.00 | 0.23 | 0.23 | 90 | 1012.3 |
| 20260503001505 | 64 | 342 | 0.0 | 4.3 | 0.00 | 0.23 | 0.23 | 90 | 1012.1 |
| 20260503001001 | 64 | 237 | 0.0 | 4.3 | 0.00 | 0.23 | 0.23 | 90 | 1012.1 |
| 20260503000503 | 64 | 239 | 0.0 | 4.3 | 0.00 | 0.23 | 0.23 | 90 | 1012.0 |
| 20260503000112 | 64 | 264 | 0.0 | 2.6 | 0.00 | 0.23 | 0.23 | 90 | 1011.9 |
| 20260502235559 | 64 | 168 | 0.0 | 1.7 | 0.00 | 0.23 | 0.23 | 90 | 1011.9 |
| 20260502235503 | 64 | 258 | 0.0 | 1.7 | 0.00 | 0.23 | 0.23 | 90 | 1011.9 |
| 20260502235103 | 65 | 236 | 0.9 | 2.6 | 0.00 | 0.23 | 0.23 | 90 | 1011.8 |
| 20260502234559 | 65 | 310 | 0.0 | 4.3 | 0.00 | 0.23 | 0.23 | 90 | 1011.5 |
| 20260502234059 | 65 | 338 | 0.0 | 6.1 | 0.00 | 0.23 | 0.23 | 90 | 1011.1 |
| 20260502233555 | 65 | 253 | 0.0 | 6.1 | 0.00 | 0.23 | 0.23 | 90 | 1011.2 |
| 20260502233052 | 65 | 321 | 0.0 | 3.5 | 0.00 | 0.23 | 0.23 | 90 | 1011.2 |
| 20260502232551 | 66 | 332 | 0.9 | 2.6 | 0.00 | 0.23 | 0.23 | 90 | 1011.2 |
| 20260502231612 | 66 | 333 | 0.9 | 3.5 | 0.00 | 0.23 | 0.23 | 90 | 1010.8 |
| 20260502231048 | 66 | 203 | 0.9 | 3.5 | 0.00 | 0.23 | 0.23 | 90 | 1010.8 |
| 20260502230545 | 67 | 316 | 0.0 | 2.6 | 0.00 | 0.23 | 0.23 | 90 | 1010.5 |
| 20260502230050 | 67 | 195 | 0.0 | 5.2 | 0.00 | 0.23 | 0.23 | 90 | 1010.5 |
| 20260502225544 | 67 | 313 | 0.9 | 7.0 | 0.00 | 0.23 | 0.23 | 89 | 1010.6 |
| 20260502225048 | 68 | 96 | 0.9 | 7.0 | 0.00 | 0.23 | 0.23 | 89 | 1010.6 |
| 20260502224554 | 69 | 101 | 0.0 | 5.2 | 0.00 | 0.23 | 0.23 | 89 | 1010.4 |
| 20260502224043 | 70 | 323 | 0.0 | 5.2 | 0.00 | 0.23 | 0.23 | 89 | 1010.2 |
| 20260502223552 | 70 | 231 | 0.0 | 1.7 | 0.00 | 0.23 | 0.23 | 89 | 1010.1 |
| 20260502223041 | 70 | 303 | 0.0 | 4.3 | 0.00 | 0.23 | 0.23 | 89 | 1009.9 |
| 20260502222541 | 70 | 276 | 0.0 | 4.3 | 0.00 | 0.23 | 0.23 | 89 | 1009.8 |
| 20260502222041 | 70 | 268 | 0.0 | 3.5 | 0.00 | 0.23 | 0.23 | 89 | 1009.7 |
| 20260502221540 | 70 | 109 | 0.0 | 2.6 | 0.00 | 0.23 | 0.23 | 89 | 1009.3 |
| 20260502221040 | 70 | 202 | 0.0 | 5.2 | 0.00 | 0.23 | 0.23 | 90 | 1009.1 |
| 20260502220541 | 70 | 356 | 0.0 | 3.5 | 0.00 | 0.23 | 0.23 | 90 | 1008.9 |
| 20260502220046 | 70 | 216 | 0.0 | 3.5 | 0.00 | 0.23 | 0.23 | 91 | 1009.1 |
| 20260502215537 | 70 | 304 | 0.0 | 1.7 | 0.00 | 0.23 | 0.23 | 91 | 1009.1 |
| 20260502215051 | 69 | 301 | 0.0 | 1.7 | 0.00 | 0.23 | 0.23 | 91 | 1009.0 |
| 20260502214536 | 69 | 250 | 0.0 | 1.7 | 0.00 | 0.23 | 0.23 | 91 | 1009.1 |
| 20260502214040 | 69 | 229 | 0.0 | 0.9 | 0.00 | 0.23 | 0.23 | 92 | 1008.9 |
| 20260502213631 | 68 | 232 | 0.0 | 0.9 | 0.00 | 0.23 | 0.23 | 92 | 1009.0 |
| 20260502213031 | 68 | 275 | 0.0 | 3.5 | 0.00 | 0.23 | 0.23 | 92 | 1008.8 |
| 20260502212533 | 68 | 216 | 0.0 | 2.6 | 0.00 | 0.23 | 0.23 | 93 | 1008.9 |
| 20260502212032 | 68 | 237 | 0.0 | 0.9 | 0.00 | 0.23 | 0.23 | 93 | 1008.8 |
| 20260502211528 | 68 | 120 | 0.0 | 1.7 | 0.00 | 0.23 | 0.23 | 93 | 1008.7 |
| 20260502211027 | 68 | 278 | 0.0 | 1.7 | 0.00 | 0.23 | 0.23 | 93 | 1008.9 |
| 20260502210531 | 68 | 105 | 0.0 | 1.7 | 0.00 | 0.23 | 0.23 | 93 | 1008.9 |
| 20260502210026 | 67 | 302 | 0.0 | 2.6 | 0.00 | 0.23 | 0.23 | 93 | 1009.0 |
| 20260502205527 | 67 | 287 | 0.0 | 2.6 | 0.00 | 0.23 | 0.23 | 93 | 1009.0 |
| 20260502205023 | 67 | 309 | 0.0 | 2.6 | 0.00 | 0.23 | 0.23 | 93 | 1009.0 |
| 20260502204529 | 67 | 257 | 0.0 | 5.2 | 0.00 | 0.23 | 0.23 | 93 | 1009.0 |
| 20260502204024 | 67 | 255 | 0.0 | 5.2 | 0.00 | 0.23 | 0.23 | 93 | 1009.1 |
| 20260502203521 | 67 | 188 | 0.0 | 1.7 | 0.00 | 0.23 | 0.23 | 93 | 1009.1 |
| 20260502203021 | 67 | 285 | 0.0 | 2.6 | 0.00 | 0.23 | 0.23 | 93 | 1009.1 |
| 20260502202521 | 67 | 301 | 0.0 | 3.5 | 0.00 | 0.23 | 0.23 | 93 | 1009.2 |
| 20260502202024 | 68 | 332 | 0.0 | 3.5 | 0.00 | 0.23 | 0.23 | 93 | 1009.2 |
| 20260502201519 | 68 | 250 | 0.9 | 3.5 | 0.00 | 0.23 | 0.23 | 93 | 1009.2 |
| 20260502201023 | 68 | 283 | 0.9 | 6.1 | 0.00 | 0.23 | 0.23 | 93 | 1009.4 |
| 20260502200519 | 68 | 275 | 0.0 | 6.1 | 0.00 | 0.23 | 0.23 | 93 | 1009.4 |
| 20260502200022 | 68 | 312 | 1.7 | 5.2 | 0.00 | 0.23 | 0.23 | 92 | 1009.2 |
| 20260502195520 | 68 | 312 | 0.9 | 7.8 | 0.00 | 0.23 | 0.23 | 92 | 1009.3 |
| 20260502195015 | 68 | 227 | 1.7 | 7.8 | 0.00 | 0.23 | 0.23 | 92 | 1009.4 |
| 20260502194516 | 68 | 236 | 0.0 | 4.3 | 0.00 | 0.23 | 0.23 | 92 | 1009.4 |
| 20260502194113 | 68 | 224 | 0.9 | 4.3 | 0.00 | 0.23 | 0.23 | 92 | 1009.5 |
| 20260502193519 | 68 | 271 | 0.9 | 2.6 | 0.00 | 0.23 | 0.23 | 92 | 1009.4 |
| 20260502193010 | 69 | 302 | 0.9 | 5.2 | 0.00 | 0.23 | 0.23 | 92 | 1009.3 |
| 20260502192510 | 68 | 248 | 0.9 | 5.2 | 0.00 | 0.23 | 0.23 | 92 | 1009.2 |
| 20260502192012 | 68 | 300 | 0.9 | 6.1 | 0.00 | 0.23 | 0.23 | 92 | 1009.1 |
| 20260502191508 | 69 | 336 | 0.0 | 8.7 | 0.00 | 0.23 | 0.23 | 92 | 1009.2 |
| 20260502191010 | 69 | 238 | 3.5 | 8.7 | 0.00 | 0.23 | 0.23 | 92 | 1009.3 |
| 20260502190509 | 69 | 250 | 0.0 | 4.3 | 0.00 | 0.23 | 0.23 | 92 | 1009.3 |
| 20260502190006 | 69 | 246 | 0.9 | 6.1 | 0.00 | 0.23 | 0.23 | 92 | 1009.2 |
| 20260502185504 | 69 | 240 | 0.9 | 6.1 | 0.01 | 0.23 | 0.23 | 92 | 1009.1 |
| 20260502185007 | 69 | 263 | 0.0 | 4.3 | 0.01 | 0.23 | 0.23 | 93 | 1009.1 |
| 20260502184507 | 69 | 232 | 0.0 | 4.3 | 0.01 | 0.23 | 0.23 | 93 | 1008.9 |
| 20260502184005 | 69 | 304 | 0.0 | 2.6 | 0.01 | 0.23 | 0.23 | 93 | 1008.7 |
| 20260502183503 | 69 | 263 | 0.0 | 2.6 | 0.01 | 0.23 | 0.23 | 93 | 1008.9 |
| 20260502183109 | 69 | 262 | 0.0 | 2.6 | 0.01 | 0.23 | 0.23 | 93 | 1008.9 |
| 20260502182700 | 69 | 320 | 0.0 | 2.6 | 0.01 | 0.23 | 0.23 | 93 | 1008.9 |
| 20260502182056 | 69 | 276 | 0.0 | 2.6 | 0.01 | 0.23 | 0.23 | 93 | 1008.8 |
| 20260502181603 | 69 | 253 | 0.0 | 4.3 | 0.03 | 0.23 | 0.23 | 93 | 1008.9 |
| 20260502181055 | 68 | 252 | 0.0 | 4.3 | 0.04 | 0.23 | 0.23 | 93 | 1008.9 |
| 20260502180554 | 68 | 226 | 0.0 | 2.6 | 0.05 | 0.23 | 0.23 | 93 | 1009.1 |